User: anonymous   Login
Location: Demmingen
(48.6757°N, 10.4375°E)
Time: 00:17:05
(UTC+00:00)
Language:

Cosmos 2082 Rocket - Orbit

View from above orbital plane
View from above orbital plane
View from above satellite
View from above satellite

Ground track
Ground track

The orbit data is extracted from the following two-line orbital elements,

1 20625U 90046B   24204.16241313 -.00000145  00000-0 -50192-4 0  9990
2 20625  70.9996 108.4874 0012484 136.6184 223.5924 14.14847749764156
Epoch (UTC): 22 July 2024 03:53:52
Eccentricity: 0.0012484
inclination: 70.9996°
perigee height: 834 km
apogee height: 852 km
right ascension of ascending node: 108.4874°
argument of perigee: 136.6184°
revolutions per day: 14.14847749
mean anomaly at epoch: 223.5924°
orbit number at epoch: 76415

The dashed part of the orbit path shows where the satellite is in the earth's shadow,  

DLR